Regional Weather Roundup
Issued by NWS San Angelo, TX

Home | Current Version | Previous Version | Text Only | Print | Product List | Glossary On
Versions: 1 2 3 4 5 6 7 8 9 10 11 12 13 14 15 16 17 18 19 20 21 22 23 24 25 26 27 28 29 30 31 32 33 34 35 36 37 38 39 40 41 42 43 44 45 46 47 48 49 50
000
ASUS44 KSJT 240910
RWRSJT
WEST CENTRAL TEXAS REGIONAL WEATHER ROUNDUP
NATIONAL WEATHER SERVICE SAN ANGELO TX
300 AM CST FRI FEB 24 2017

NOTE: "FAIR" INDICATES FEW OR NO CLOUDS BELOW 12,000 FEET WITH NO
SIGNIFICANT WEATHER AND/OR OBSTRUCTIONS TO VISIBILITY.

TXZ049-054-064>066-071>073-076>078-098-099-113-114-127-128-139-140-
154-155-168>170-241000
...LOCATIONS ACROSS WEST CENTRAL TEXAS...

CITY           SKY/WX    TMP DP  RH WIND       PRES   REMARKS
SAN ANGELO     PTCLDY    54  32  43 SW6       29.70S
ABILENE        CLOUDY    61  28  28 W6        29.68R
DYESS AFB      CLOUDY    60  30  31 W7        29.66R
JUNCTION       CLEAR     51  40  65 W8        29.71S
SWEETWATER     CLEAR     60  25  26 W13       29.72R
BROWNWOOD      CLOUDY    50  46  87 CALM      29.68R
COLEMAN        CLOUDY    67  28  23 W3        29.67S
SONORA         PTCLDY    50  32  50 CALM      29.78R
OZONA          FAIR      45  32  61 MISG      29.76F
BRADY          NOT AVBL
$$

TEXAS PANHANDLE/OKLAHOMA PANHANDLE

CITY           SKY/WX    TMP DP  RH WIND       PRES   REMARKS
AMARILLO       PTCLDY    30  26  85 N17       29.80R WCI  18
BORGER         CLEAR     32  25  75 N12       29.83R WCI  23
CANADIAN       CLEAR     33  28  81 N16G23    29.80R WCI  23
DALHART        CLEAR     30  23  75 N12       29.81R WCI  20
DUMAS          SUNNY     26  21  81 N12       29.82R WCI  15
GUYMON         NOT AVBL
HEREFORD       CLOUDY    35  31  85 NE12G21   29.80S WCI  27
PAMPA          SUNNY     31  26  83 N14       29.80R WCI  21
PERRYTON       PTCLDY    30  24  78 NW14      29.80R WCI  19
$$

SOUTHERN PANHANDLE/SOUTH PLAINS/ROLLING PLAINS

CITY           SKY/WX    TMP DP  RH WIND       PRES   REMARKS
LUBBOCK        CLEAR     42  21  43 N13       29.75R WCI  35
SNYDER         CLEAR     55  25  31 SW7       29.69R
CHILDRESS      PTCLDY    41  32  70 N14       29.77R WCI  33
SEMINOLE       SUNNY     50  20  31 W10       29.79R
$$

PERMIAN BASIN

CITY           SKY/WX    TMP DP  RH WIND       PRES   REMARKS
MIDLAND        CLEAR     56  15  20 NW18      29.74R
ODESSA         CLEAR     55  13  18 NW13      29.77R
WINK             N/A     52   9  17 MISG      29.77R
$$

FAR WEST/SOUTHWEST MOUNTAINS/TRANS PECOS

CITY           SKY/WX    TMP DP  RH WIND       PRES   REMARKS
ALPINE         SUNNY     58  19  21 W14       29.91S
DRYDEN           N/A     58  24  27 NW3       29.74R
EL PASO        CLEAR     55   2  11 W17G31    29.87R
FORT STOCKTON  CLEAR     65  16  15 W21G29    29.77S
GUADALUPE PASS CLEAR     47   6  18 W39G47    29.84R WCI  37
MARFA          CLEAR     51  18  27 W6        29.91S
PECOS          SUNNY     54  11  18 W13       29.78S
$$

DALLAS/FORT WORTH METROPLEX

CITY           SKY/WX    TMP DP  RH WIND       PRES   REMARKS
DFW AIRPORT    PTCLDY    63  57  81 SW7       29.56F
FTW MEACHAM    PTCLDY    63  50  62 W9        29.58F
DAL-EXECUTIVE  CLEAR     64  60  87 CALM      29.59F
GRAND PRAIRIE  CLEAR     63  57  81 S9        29.60F
ADDISON        PTCLDY    65  58  79 SW3       29.59F
MESQUITE       SUNNY     63  59  88 S12       29.61S
LANCASTER      MOSUNNY   62  58  88 S7        29.62S
$$

NORTH CENTRAL TEXAS

CITY           SKY/WX    TMP DP  RH WIND       PRES   REMARKS
SHRMAN/DENISON SUNNY     61  56  84 SW10      29.59R
GAINESVILLE    CLEAR     59  39  47 N20G26    29.63R
BRIDGEPORT     CLOUDY    68  30  24 NW9       29.63R
DENTON         PTCLDY    61  51  70 W8        29.58S
WAXAHACHIE     SUNNY     61  61  99 S5        29.62F
GRANBURY       MOSUNNY   59  48  67 W3        29.63R
$$

WESTERN NORTH TEXAS

CITY           SKY/WX    TMP DP  RH WIND       PRES   REMARKS
WICHITA FALLS  CLEAR     46  37  71 N21       29.68R WCI  38
VERNON         SUNNY     44  33  65 N15G25    29.74R WCI  37
BRECKENRIDGE   CLOUDY    64  30  27 W5        29.66R
COMANCHE       PTCLDY    58  38  46 NW5       29.67R
$$

CENTRAL AND SOUTH CENTRAL TEXAS

CITY           SKY/WX    TMP DP  RH WIND       PRES   REMARKS
AUSTIN/BERGSTM MOCLDY    67  63  87 W6        29.69R
WACO           CLEAR     61  58  90 S10       29.62F
HILLSBORO      SUNNY     62  59  93 S6        29.63R
TEMPLE         CLEAR     63  59  87 S13       29.65F
KILLEEN-GRAY   CLEAR     64  56  75 S8        29.64S
FORT HOOD      CLEAR     61  56  82 SE6       29.62S
GEORGETOWN     CLEAR     66  55  68 S12       29.66F
LAGO VISTA     FAIR      67  58  71 SW7       29.70F
SAN MARCOS     CLOUDY    61  61 100 NW13      29.70R
NEW BRAUNFELS  FOG       62  60  93 N13G22    29.68R VSB 1
RANDOLPH AFB   PTCLDY    57  57 100 N17       29.68R FOG
SAN ANTONIO    PTCLDY    60  58  92 NW14      29.69R
STINSON        CLOUDY    62  59  90 CALM      29.63F
PLEASANTON     NOT AVBL
LA GRANGE      CLOUDY    66  65  97 S3        29.63S
GIDDINGS       CLOUDY   N/A N/A N/A S7        29.66S
$$

EAST TEXAS

CITY           SKY/WX    TMP DP  RH WIND       PRES   REMARKS
PARIS          PTCLDY    64  54  68 S14       29.58S
CLARKSVILLE    NOT AVBL
TYLER          PTCLDY    62  57  83 SW10      29.65R
LONGVIEW       PTCLDY    61  58  90 SW9       29.63R
PALESTINE      MOSUNNY   59  58  96 S5        29.69R
NACOGDOCHES    CLOUDY    61  57  88 S10G16    29.63F
$$

TEXAS HILL COUNTRY AND EDWARDS PLATEAU

CITY           SKY/WX    TMP DP  RH WIND       PRES   REMARKS
LLANO          MOSUNNY   54  50  87 CALM      29.71R
HORSESHOE BAY    N/A     68  54  61 S5        29.66F
KERRVILLE      CLEAR     57  55  93 CALM      29.70F
FREDERICKSBRG  CLEAR     55  52  89 N6        29.70S
ROCKSPRINGS    SUNNY     64  32  29 NE6       29.75S
HONDO          PTCLDY    62  59  90 N15       29.69R
UVALDE         MOSUNNY   63  59  86 N7        29.71R
DEL RIO        PTCLDY    60  44  55 NW3       29.67R
$$

SOUTHEAST TEXAS

CITY           SKY/WX    TMP DP  RH WIND       PRES   REMARKS
COLLEGE STN    CLOUDY    64  62  93 NW14      29.69R
CALDWELL       NOT AVBL
CROCKETT       CLOUDY    59  59 100 SW6       29.69R FOG
BRENHAM        CLOUDY    65  64  96 S6        29.66S
HUNTSVILLE     MOCLDY    64  60  87 S16G24    29.64S
CONROE         CLOUDY    64  62  93 S12       29.67S
HOUSTON BUSH   PTCLDY    66  63  90 S8        29.67S
HOUSTON HOBBY  MOCLDY    67  64  90 S12       29.67S
PERLAND        CLOUDY    69  65  86 S10       29.69S
WHARTON        PTSUNNY   63  62  96 SE5       29.67S
$$

THE UPPER TEXAS COAST

CITY           SKY/WX    TMP DP  RH WIND       PRES   REMARKS
ORANGE         CLOUDY    65  64  96 S9        29.71S
PORT ARTHUR    CLOUDY    66  63  90 S14G21    29.68F
GALVESTON        N/A     68  66  93 S16       29.68F
ANGLETON       CLOUDY    68  65  90 S13       29.67F
BAY CITY       SUNNY     64  64  99 S3        29.67S
$$

TEXAS COASTAL BEND, RIO GRANDE PLAINS DEEP SOUTH TEXAS

CITY           SKY/WX    TMP DP  RH WIND       PRES   REMARKS
VICTORIA       CLEAR     68  66  93 S10       29.64F
BEEVILLE       FAIR      66  66 100 S10       29.63F
ROCKPORT       CLEAR     70  66  87 S8G17     29.63F
PORT ARANSAS   SUNNY     69  67  94 S14G20    29.64F
PORT LAVACA    SUNNY     66  66 100 CALM      29.65F
CORPUS CHRISTI CLEAR     68  66  93 S16       29.62F
KINGSVILLE NAS PTCLDY    68  68 100 SE13      29.61F
COTULLA        CLEAR     63  57  81 E3        29.61F
LAREDO         CLEAR     66  57  72 SE8       29.61S
BROWNSVILLE    PTCLDY    70  67  90 SE12      29.64F
PORT ISABEL    CLEAR     69  66  90 SE12      29.63F
HEBBRONVILLE   FOG       64  62  96 S10G17    29.62F VSB 1/2
MCALLEN        PTCLDY    70  67  90 SE13      29.62F
WESLACO        PTCLDY    68  66  93 S13       29.61F
FALFURRIAS     MOSUNNY   66  65  96 SE6       29.61F
EDINBURG       SUNNY     66  64  93 SE6       29.61F
$$




USA.gov is the U.S. government's official web portal to all federal, state and local government web resources and services.